This demonstration page uses our WeatherBlox Daily Observations layout. Learn more.

Left ArrowRight Arrow

39.92423, -83.80882

Hourly Observations for March 2, 2020

Temp ( °F °C ) Dew Point ( °F °C ) Humidity (%) Winds ( mph kmh ) Pressure ( in mb ) Visibility ( mi km ) Precip ( " mm )
12:56 am 00:56 Mostly Cloudy 51 10.6 37 2.8 59 59 SSW 14 22 29.89 1012 10 16.0934 0 0
1:56 am 01:56 Mostly Cloudy 53 11.7 38 3.3 57 57 SW 21 33 29.87 1012 10 16.0934 0 0
2:56 am 02:56 Mostly Cloudy 52 11.1 38 3.3 59 59 SW 17 28 29.85 1011 10 16.0934 0 0
3:56 am 03:56 Clear 51 10.6 38 3.3 61 61 SW 13 20 29.84 1010 10 16.0934 0 0
4:56 am 04:56 Clear 50 10 38 3.3 63 63 SW 14 22 29.83 1010 10 16.0934 0 0
5:56 am 05:56 Cloudy 50 10 40 4.4 68 68 SW 9 15 29.83 1010 10 16.0934 0 0
6:56 am 06:56 Cloudy 50 10 39 3.9 66 66 SSW 8 13 29.82 1010 10 16.0934 0.01 0.254
7:56 am 07:56 Cloudy with Light Rain 49 9.4 40 4.4 71 71 SW 9 15 29.82 1010 10 16.0934 0.001 0.001
8:21 am 08:21 Cloudy with Light Rain 48 9 43 6 82 82 SSW 10 17 29.83 1010 10 16.0934 0.001 0.001
8:30 am 08:30 Cloudy with Light Rain 48 9 45 7 87 87 SSW 9 15 29.83 1010 10 16.0934 0.001 0.001
8:56 am 08:56 Cloudy with Rain 47 8.3 46 7.8 97 97 SSW 9 15 29.82 1010 8 12.87472 0.05 1.27
9:05 am 09:05 Cloudy with Light Rain 46 8 46 8 100 100 SSW 7 11 29.83 1010 8 12.87472 0.001 0.001
9:22 am 09:22 Cloudy with Light Rain 46 8 46 8 100 100 SSW 8 13 29.82 1010 10 16.0934 0.15 3.81
9:56 am 09:56 Cloudy with Light Rain 47 8.3 47 8.3 100 100 S 9 15 29.8 1009 6 9.65604 0.15 3.81
10:03 am 10:03 Cloudy with Light Rain 46 8 46 8 100 100 S 10 17 29.8 1009 8 12.87472 0.001 0.001
10:56 am 10:56 Cloudy 48 8.9 48 8.9 100 100 SSW 13 20 29.78 1009 10 16.0934 0.001 0.001
11:12 am 11:12 Cloudy with Light Rain 48 9 48 9 100 100 SSW 13 20 29.79 1009 2.5 4.02335 0.001 0.001
11:20 am 11:20 Cloudy with Light Rain 48 9 48 9 100 100 SSW 10 17 29.79 1009 3 4.82802 0.001 0.001
11:48 am 11:48 Cloudy with Light Rain 48 9 48 9 100 100 SSW 13 20 29.79 1009 3 4.82802 0.001 0.001
11:56 am 11:56 Cloudy with Light Rain 48 8.9 48 8.9 100 100 SSW 12 19 29.78 1009 3 4.82802 0.001 0.001
12:11 pm 12:11 Cloudy with Light Rain 48 9 48 9 100 100 SSW 12 19 29.79 1009 2.5 4.02335 0.001 0.001
12:44 pm 12:44 Cloudy with Light Rain 48 9 48 9 100 100 SSW 13 20 29.78 1008 4 6.43736 0.001 0.001
12:56 pm 12:56 Cloudy with Light Rain 48 8.9 48 8.9 100 100 SW 12 19 29.76 1008 5 8.0467 0.001 0.001
1:56 pm 13:56 Cloudy 49 9.4 49 9.4 100 100 SW 10 17 29.73 1007 7 11.26538 0.001 0.001
2:56 pm 14:56 Cloudy 49 9.4 49 9.4 100 100 WSW 13 20 29.72 1006 8 12.87472 0 0
3:26 pm 15:26 Cloudy with Mist and Fog 48 9 48 9 100 100 WSW 13 20 29.73 1007 2.5 4.02335 0 0
3:37 pm 15:37 Cloudy with Mist and Fog 48 9 48 9 100 100 WSW 14 22 29.73 1007 3 4.82802 0 0
3:56 pm 15:56 Cloudy 49 9.4 49 9.4 100 100 WSW 12 19 29.72 1007 7 11.26538 0 0
4:56 pm 16:56 Cloudy with Mist and Fog 49 9.4 49 9.4 100 100 WSW 14 22 29.73 1007 5 8.0467 0 0
5:56 pm 17:56 Cloudy 49 9.4 49 9.4 100 100 WSW 9 15 29.76 1008 10 16.0934 0 0
6:28 pm 18:28 Cloudy with Light Rain 48 9 48 9 100 100 WSW 8 13 29.78 1008 2 3.21868 0.001 0.001
6:35 pm 18:35 Cloudy with Light Rain 48 9 48 9 100 100 SW 7 11 29.77 1008 1 1.60934 0.001 0.001
6:46 pm 18:46 Cloudy with Light Rain 48 9 48 9 100 100 SW 7 11 29.78 1008 1.5 2.41401 0.001 0.001
6:56 pm 18:56 Cloudy with Light Rain 49 9.4 49 9.4 100 100 SSW 6 9 29.77 1008 2 3.21868 0.001 0.001
7:06 pm 19:06 Cloudy with Light Rain 48 9 48 9 100 100 SW 7 11 29.77 1008 2 3.21868 0.001 0.001
7:26 pm 19:26 Cloudy with Mist and Fog 48 9 48 9 100 100 SW 7 11 29.77 1008 3 4.82802 0.001 0.001
7:56 pm 19:56 Cloudy with Mist and Fog 49 9.4 49 9.4 100 100 SSW 7 11 29.77 1008 5 8.0467 0.001 0.001
8:54 pm 20:54 Cloudy with Mist and Fog 48 9 48 9 100 100 SSW 7 11 29.76 1008 4 6.43736 0 0
8:56 pm 20:56 Cloudy with Mist and Fog 49 9.4 49 9.4 100 100 SSW 7 11 29.76 1008 4 6.43736 0 0
9:48 pm 21:48 Cloudy with Mist and Fog 48 9 48 9 100 100 SSW 9 15 29.77 1008 2 3.21868 0 0
9:56 pm 21:56 Cloudy with Mist and Fog 49 9.4 49 9.4 100 100 SSW 7 11 29.76 1008 1.5 2.41401 0 0
10:17 pm 22:17 Cloudy with Mist and Fog 48 9 48 9 100 100 SW 7 11 29.77 1008 2.5 4.02335 0 0
10:31 pm 22:31 Cloudy with Mist and Fog 50 10 50 10 100 100 SW 6 9 29.76 1008 3 4.82802 0 0
10:56 pm 22:56 Cloudy with Mist and Fog 50 10 50 10 100 100 SW 7 11 29.75 1008 3 4.82802 0 0
11:56 pm 23:56 Cloudy with Light Rain 50 10 50 10 100 100 S 5 7 29.72 1006 3 4.82802 0.001 0.001

Powered by AerisWeather